Tracking 23731 objects as of 27-Sep-2021
HD Live streaming from Space Station
objects crossing your sky now

STARLINK-2623

Track STARLINK-2623 now!
10-day predictions
STARLINK-2623 is classified as:


NORAD ID: 48368
Int'l Code: 2021-038R
Perigee: 553.0 km
Apogee: 555.8 km
Inclination: 53.1 °
Period: 95.6 minutes
Semi major axis: 6925 km
RCS: Unknown
Launch date: May 4, 2021
Source: United States (US)
Launch site: AIR FORCE EASTERN TEST RANGE (AFETR)
aabbcc
Your satellite tracking list
Your tracking list is empty




NASA's NSSDC Master Catalog

Two Line Element Set (TLE):
1 48368U 21038R   21270.21980368 -.00001068  00000-0 -52821-4 0  9991
2 48368  53.0546  84.1336 0001992  95.0514 265.0703 15.06386917 22322
Source of the keplerian elements: AFSPC